• Em Portugal
  • Lista de países
  • Para 7 dias
  • Temperatura da água
  • Mapas de satélite
  • Mapa do tempo
  • Widgets de tempo
  • user-avatar
    Iniciar Sessão

    Previsão horária em Brasília

    Hoje, 22 Novembro, Quarta-feira

    Tempo Temperatura Precipitação Vento Pressão Humidade
    00:00 +21°C° 1,6 mm 2 m/s 664 mmHg 91%
    01:00 +20°C° 0,5 mm 2 m/s 664 mmHg 92%
    02:00 +20°C° 0,5 mm 2 m/s 664 mmHg 92%
    03:00 +20°C° 0 mm 2 m/s 664 mmHg 93%
    04:00 +20°C° 0 mm 2 m/s 664 mmHg 94%
    05:00 +21°C° 0 mm 1 m/s 664 mmHg 94%
    06:00 +20°C° 0 mm 1 m/s 664 mmHg 94%
    07:00 +21°C° 0,2 mm 2 m/s 664 mmHg 89%
    08:00 +22°C° 0,2 mm 3 m/s 665 mmHg 85%
    09:00 +24°C° 0 mm 3 m/s 665 mmHg 79%
    10:00 +25°C° 0,6 mm 3 m/s 665 mmHg 76%
    11:00 +26°C° 0,6 mm 3 m/s 665 mmHg 73%
    12:00 +26°C° 0,6 mm 4 m/s 665 mmHg 70%
    13:00 +26°C° 1,8 mm 4 m/s 664 mmHg 74%
    14:00 +25°C° 1,8 mm 3 m/s 664 mmHg 79%
    15:00 +24°C° 1,8 mm 3 m/s 663 mmHg 83%
    16:00 +24°C° 1,4 mm 2 m/s 663 mmHg 86%
    17:00 +23°C° 1,4 mm 2 m/s 663 mmHg 88%
    18:00 +21°C° 1,4 mm 2 m/s 663 mmHg 91%
    19:00 +22°C° 0,7 mm 1 m/s 663 mmHg 92%
    20:00 +22°C° 0,7 mm 1 m/s 664 mmHg 93%
    21:00 +21°C° 0,7 mm 1 m/s 664 mmHg 94%
    22:00 +21°C° 0,7 mm 1 m/s 664 mmHg 94%
    23:00 +21°C° 0,7 mm 1 m/s 664 mmHg 94%

    Amanhã, 23 Novembro, Quinta-feira

    Tempo Temperatura Precipitação Vento Pressão Humidade
    00:00 +21°C° 0,7 mm 1 m/s 664 mmHg 94%
    01:00 +21°C° 0,3 mm 1 m/s 664 mmHg 94%
    02:00 +21°C° 0,3 mm 1 m/s 663 mmHg 93%
    03:00 +20°C° 0,3 mm 1 m/s 663 mmHg 93%
    04:00 +20°C° 0,4 mm 1 m/s 663 mmHg 93%
    05:00 +20°C° 0,4 mm 1 m/s 663 mmHg 92%
    06:00 +20°C° 0,4 mm 1 m/s 664 mmHg 92%
    07:00 +21°C° 0,6 mm 1 m/s 664 mmHg 89%
    08:00 +23°C° 0,6 mm 2 m/s 665 mmHg 85%
    09:00 +24°C° 0,6 mm 2 m/s 666 mmHg 81%
    10:00 +25°C° 0,8 mm 2 m/s 665 mmHg 78%
    11:00 +25°C° 0,8 mm 2 m/s 665 mmHg 76%
    12:00 +26°C° 0,8 mm 3 m/s 665 mmHg 73%
    13:00 +26°C° 1,1 mm 2 m/s 665 mmHg 75%
    14:00 +26°C° 1,1 mm 2 m/s 664 mmHg 77%
    15:00 +25°C° 1,1 mm 2 m/s 664 mmHg 79%
    16:00 +24°C° 1,2 mm 2 m/s 664 mmHg 82%
    17:00 +23°C° 1,2 mm 2 m/s 664 mmHg 86%
    18:00 +21°C° 1,2 mm 2 m/s 663 mmHg 90%
    19:00 +21°C° 1,3 mm 2 m/s 664 mmHg 91%
    20:00 +21°C° 1,3 mm 2 m/s 664 mmHg 92%
    21:00 +20°C° 1,3 mm 2 m/s 665 mmHg 93%
    22:00 +20°C° 1,2 mm 2 m/s 665 mmHg 93%
    23:00 +21°C° 1,2 mm 1 m/s 665 mmHg 93%

    Depois de amanhã, 24 Novembro, Sexta-feira

    Tempo Temperatura Precipitação Vento Pressão Humidade
    00:00 +20°C° 1,2 mm 1 m/s 665 mmHg 94%
    01:00 +20°C° 1,4 mm 1 m/s 664 mmHg 94%
    02:00 +20°C° 1,4 mm 1 m/s 664 mmHg 94%
    03:00 +20°C° 1,4 mm 1 m/s 664 mmHg 94%
    04:00 +20°C° 1 mm 1 m/s 664 mmHg 94%
    05:00 +20°C° 1 mm 1 m/s 664 mmHg 94%
    06:00 +20°C° 1 mm 1 m/s 664 mmHg 94%
    07:00 +21°C° 0,1 mm 1 m/s 665 mmHg 89%
    08:00 +22°C° 0,1 mm 1 m/s 666 mmHg 84%
    09:00 +23°C° 0,1 mm 1 m/s 666 mmHg 79%
    10:00 +25°C° 0 mm 2 m/s 666 mmHg 73%
    11:00 +26°C° 0 mm 2 m/s 667 mmHg 66%
    12:00 +28°C° 0 mm 2 m/s 667 mmHg 60%
    13:00 +28°C° 0,5 mm 2 m/s 666 mmHg 61%
    14:00 +28°C° 0,5 mm 2 m/s 665 mmHg 63%
    15:00 +28°C° 0,5 mm 2 m/s 665 mmHg 64%
    16:00 +26°C° 1,1 mm 2 m/s 665 mmHg 70%
    17:00 +25°C° 1,1 mm 2 m/s 664 mmHg 76%
    18:00 +24°C° 1,1 mm 1 m/s 664 mmHg 82%
    19:00 +23°C° 1,1 mm 1 m/s 665 mmHg 84%
    20:00 +23°C° 1,1 mm 1 m/s 665 mmHg 86%
    21:00 +22°C° 1,1 mm 1 m/s 666 mmHg 88%
    22:00 +22°C° 1,2 mm 1 m/s 666 mmHg 89%
    23:00 +22°C° 1,2 mm 1 m/s 666 mmHg 90%

    25 Novembro, Sábado

    Tempo Temperatura Precipitação Vento Pressão Humidade
    00:00 +20°C° 1,2 mm 2 m/s 666 mmHg 90%
    01:00 +20°C° 0,3 mm 2 m/s 665 mmHg 91%
    02:00 +20°C° 0,3 mm 2 m/s 665 mmHg 91%
    03:00 +20°C° 0,3 mm 2 m/s 664 mmHg 92%
    04:00 +20°C° 0 mm 2 m/s 665 mmHg 92%
    05:00 +19°C° 0 mm 2 m/s 665 mmHg 92%
    06:00 +19°C° 0 mm 2 m/s 665 mmHg 92%
    07:00 +21°C° 0,1 mm 2 m/s 666 mmHg 86%
    08:00 +24°C° 0,1 mm 3 m/s 667 mmHg 80%
    09:00 +25°C° 0,1 mm 3 m/s 667 mmHg 74%
    10:00 +26°C° 0,3 mm 3 m/s 667 mmHg 70%
    11:00 +27°C° 0,3 mm 3 m/s 667 mmHg 65%
    12:00 +28°C° 0,3 mm 3 m/s 667 mmHg 61%
    13:00 +28°C° 0,8 mm 3 m/s 666 mmHg 61%
    14:00 +28°C° 0,8 mm 3 m/s 666 mmHg 61%
    15:00 +29°C° 0,8 mm 2 m/s 665 mmHg 61%
    16:00 +27°C° 1,1 mm 2 m/s 665 mmHg 67%
    17:00 +26°C° 1,1 mm 2 m/s 664 mmHg 73%
    18:00 +25°C° 1,1 mm 1 m/s 664 mmHg 79%
    19:00 +24°C° 2,9 mm 1 m/s 664 mmHg 82%
    20:00 +23°C° 2,9 mm 1 m/s 665 mmHg 85%
    21:00 +22°C° 2,9 mm 1 m/s 665 mmHg 87%
    22:00 +22°C° 1,7 mm 1 m/s 665 mmHg 88%
    23:00 +22°C° 1,7 mm 1 m/s 665 mmHg 89%

    26 Novembro, Domingo

    Tempo Temperatura Precipitação Vento Pressão Humidade
    00:00 +20°C° 1,7 mm 2 m/s 666 mmHg 90%
    01:00 +21°C° 1,2 mm 1 m/s 665 mmHg 91%
    02:00 +21°C° 1,2 mm 1 m/s 665 mmHg 91%
    03:00 +21°C° 1,2 mm 1 m/s 664 mmHg 91%
    04:00 +21°C° 0,3 mm 1 m/s 664 mmHg 91%
    05:00 +21°C° 0,3 mm 1 m/s 665 mmHg 91%
    06:00 +21°C° 0,3 mm 1 m/s 665 mmHg 91%
    07:00 +22°C° 0,1 mm 1 m/s 666 mmHg 87%
    08:00 +23°C° 0,1 mm 1 m/s 666 mmHg 83%
    09:00 +24°C° 0,1 mm 2 m/s 667 mmHg 79%
    10:00 +25°C° 0,7 mm 2 m/s 667 mmHg 76%
    11:00 +26°C° 0,7 mm 2 m/s 666 mmHg 73%
    12:00 +27°C° 0,7 mm 2 m/s 666 mmHg 70%
    13:00 +26°C° 2 mm 2 m/s 665 mmHg 72%
    14:00 +26°C° 2 mm 2 m/s 665 mmHg 75%
    15:00 +25°C° 2 mm 1 m/s 664 mmHg 77%
    16:00 +24°C° 2,2 mm 1 m/s 664 mmHg 81%
    17:00 +24°C° 2,2 mm 1 m/s 664 mmHg 86%
    18:00 +23°C° 2,2 mm 1 m/s 664 mmHg 90%
    19:00 +22°C° 1,2 mm 1 m/s 664 mmHg 90%
    20:00 +22°C° 1,2 mm 1 m/s 665 mmHg 91%
    21:00 +21°C° 1,2 mm 1 m/s 665 mmHg 91%
    22:00 +21°C° 0,4 mm 1 m/s 665 mmHg 91%
    23:00 +21°C° 0,4 mm 1 m/s 665 mmHg 91%

    27 Novembro, Segunda-feira

    Tempo Temperatura Precipitação Vento Pressão Humidade
    00:00 +21°C° 0,4 mm 1 m/s 665 mmHg 92%
    01:00 +21°C° 0,2 mm 1 m/s 664 mmHg 92%
    02:00 +20°C° 0,2 mm 1 m/s 664 mmHg 92%
    03:00 +20°C° 0,2 mm 1 m/s 663 mmHg 92%
    04:00 +20°C° 0 mm 1 m/s 663 mmHg 91%
    05:00 +20°C° 0 mm 1 m/s 664 mmHg 91%
    06:00 +20°C° 0 mm 1 m/s 664 mmHg 91%
    07:00 +21°C° 0,2 mm 2 m/s 665 mmHg 85%
    08:00 +23°C° 0,2 mm 2 m/s 666 mmHg 78%
    09:00 +25°C° 0,2 mm 3 m/s 667 mmHg 72%
    10:00 +25°C° 1,2 mm 3 m/s 667 mmHg 72%
    11:00 +26°C° 1,2 mm 3 m/s 666 mmHg 72%
    12:00 +26°C° 1,2 mm 2 m/s 666 mmHg 73%
    13:00 +26°C° 1,8 mm 2 m/s 665 mmHg 74%
    14:00 +26°C° 1,8 mm 2 m/s 665 mmHg 76%
    15:00 +25°C° 1,8 mm 1 m/s 664 mmHg 77%
    16:00 +24°C° 2,3 mm 1 m/s 664 mmHg 81%
    17:00 +24°C° 2,3 mm 1 m/s 664 mmHg 85%
    18:00 +23°C° 2,3 mm 1 m/s 664 mmHg 90%
    19:00 +22°C° 2 mm 1 m/s 665 mmHg 90%
    20:00 +20°C° 2 mm 0 m/s 665 mmHg 90%
    21:00 +20°C° 2 mm 0 m/s 666 mmHg 91%
    22:00 +19°C° 2,5 mm 0 m/s 666 mmHg 91%
    23:00 +19°C° 2,5 mm 0 m/s 666 mmHg 92%
    Mostrar mais